Year,Month,Day,Hour,Minute,Value (Times are PST for temperature in C)
2019,08,06,00,00,21.70
2019,08,06,00,01,21.70
2019,08,06,00,02,21.70
2019,08,06,00,03,21.70
2019,08,06,00,04,21.80
2019,08,06,00,05,21.70
2019,08,06,00,06,21.70
2019,08,06,00,07,21.70
2019,08,06,00,08,21.70
2019,08,06,00,09,21.70
2019,08,06,00,10,21.70
2019,08,06,00,11,21.70
2019,08,06,00,12,21.70
2019,08,06,00,13,21.70
2019,08,06,00,14,21.70
2019,08,06,00,15,21.70
2019,08,06,00,16,21.70
2019,08,06,00,17,21.70
2019,08,06,00,18,21.70
2019,08,06,00,19,21.70
2019,08,06,00,20,21.70
2019,08,06,00,21,21.70
2019,08,06,00,22,21.70
2019,08,06,00,23,21.70
2019,08,06,00,24,21.70
2019,08,06,00,25,21.80
2019,08,06,00,26,21.80
2019,08,06,00,27,21.80
2019,08,06,00,28,21.90
2019,08,06,00,29,21.90
2019,08,06,00,30,21.90
2019,08,06,00,31,22.00
2019,08,06,00,32,22.00
2019,08,06,00,33,22.00
2019,08,06,00,34,22.10
2019,08,06,00,35,22.10
2019,08,06,00,36,22.10
2019,08,06,00,37,22.10
2019,08,06,00,38,22.10
2019,08,06,00,39,22.10
2019,08,06,00,40,22.00
2019,08,06,00,41,22.00
2019,08,06,00,42,22.00
2019,08,06,00,43,21.90
2019,08,06,00,44,21.90
2019,08,06,00,45,21.90
2019,08,06,00,46,21.90
2019,08,06,00,47,21.90
2019,08,06,00,48,21.90
2019,08,06,00,49,21.90
2019,08,06,00,50,21.80
2019,08,06,00,51,21.80
2019,08,06,00,52,21.80
2019,08,06,00,53,21.80
2019,08,06,00,54,21.80
2019,08,06,00,55,21.80
2019,08,06,00,56,21.80
2019,08,06,00,57,21.80
2019,08,06,00,58,21.70
2019,08,06,00,59,21.70
2019,08,06,01,00,21.70
2019,08,06,01,01,21.70
2019,08,06,01,02,21.70
2019,08,06,01,03,21.70
2019,08,06,01,04,21.60
2019,08,06,01,05,21.60
2019,08,06,01,06,21.60
2019,08,06,01,07,21.50
2019,08,06,01,08,21.50
2019,08,06,01,09,21.40
2019,08,06,01,10,21.40
2019,08,06,01,11,21.30
2019,08,06,01,12,21.30
2019,08,06,01,13,21.20
2019,08,06,01,14,21.10
2019,08,06,01,15,21.10
2019,08,06,01,16,21.10
2019,08,06,01,17,21.00
2019,08,06,01,18,21.00
2019,08,06,01,19,20.90
2019,08,06,01,20,20.90
2019,08,06,01,21,20.90
2019,08,06,01,22,20.80
2019,08,06,01,23,20.80
2019,08,06,01,24,20.80
2019,08,06,01,25,20.70
2019,08,06,01,26,20.70
2019,08,06,01,27,20.70
2019,08,06,01,28,20.60
2019,08,06,01,29,20.60
2019,08,06,01,30,20.60
2019,08,06,01,31,20.50
2019,08,06,01,32,20.50
2019,08,06,01,33,20.50
2019,08,06,01,34,20.40
2019,08,06,01,35,20.40
2019,08,06,01,36,20.40
2019,08,06,01,37,20.40
2019,08,06,01,38,20.40
2019,08,06,01,39,20.40
2019,08,06,01,40,20.40
2019,08,06,01,41,20.40
2019,08,06,01,42,20.30
2019,08,06,01,43,20.30
2019,08,06,01,44,20.30
2019,08,06,01,45,20.20
2019,08,06,01,46,20.20
2019,08,06,01,47,20.20
2019,08,06,01,48,20.10
2019,08,06,01,49,20.10
2019,08,06,01,50,20.00
2019,08,06,01,51,20.00
2019,08,06,01,52,19.90
2019,08,06,01,53,19.90
2019,08,06,01,54,19.80
2019,08,06,01,55,19.80
2019,08,06,01,56,19.70
2019,08,06,01,57,19.70
2019,08,06,01,58,19.60
2019,08,06,01,59,19.60
2019,08,06,02,00,19.50
2019,08,06,02,01,19.50
2019,08,06,02,02,19.40
2019,08,06,02,03,19.40
2019,08,06,02,04,19.30
2019,08,06,02,05,19.30
2019,08,06,02,06,19.30
2019,08,06,02,07,19.20
2019,08,06,02,08,19.20
2019,08,06,02,09,19.20
2019,08,06,02,10,19.20
2019,08,06,02,11,19.10
2019,08,06,02,12,19.10
2019,08,06,02,13,19.10
2019,08,06,02,14,19.10
2019,08,06,02,15,19.10
2019,08,06,02,16,19.10
2019,08,06,02,17,19.00
2019,08,06,02,18,19.00
2019,08,06,02,19,18.90
2019,08,06,02,20,18.90
2019,08,06,02,21,18.90
2019,08,06,02,22,18.90
2019,08,06,02,23,18.80
2019,08,06,02,24,18.80
2019,08,06,02,25,18.80
2019,08,06,02,26,18.80
2019,08,06,02,27,18.70
2019,08,06,02,28,18.70
2019,08,06,02,29,18.70
2019,08,06,02,30,18.70
2019,08,06,02,31,18.60
2019,08,06,02,32,18.60
2019,08,06,02,33,18.50
2019,08,06,02,34,18.40
2019,08,06,02,35,18.40
2019,08,06,02,36,18.40
2019,08,06,02,37,18.30
2019,08,06,02,38,18.30
2019,08,06,02,39,18.20
2019,08,06,02,40,18.20
2019,08,06,02,41,18.20
2019,08,06,02,42,18.10
2019,08,06,02,43,18.10
2019,08,06,02,44,18.10
2019,08,06,02,45,18.10
2019,08,06,02,46,18.00
2019,08,06,02,47,18.00
2019,08,06,02,48,18.00
2019,08,06,02,49,18.00
2019,08,06,02,50,18.00
2019,08,06,02,51,17.90
2019,08,06,02,52,17.90
2019,08,06,02,53,17.90
2019,08,06,02,54,17.90
2019,08,06,02,55,17.90
2019,08,06,02,56,17.90
2019,08,06,02,57,17.90
2019,08,06,02,58,17.90
2019,08,06,02,59,18.00
2019,08,06,03,00,18.00
2019,08,06,03,01,18.00
2019,08,06,03,02,18.00
2019,08,06,03,03,18.00
2019,08,06,03,04,18.00
2019,08,06,03,05,18.10
2019,08,06,03,06,18.10
2019,08,06,03,07,18.10
2019,08,06,03,08,18.10
2019,08,06,03,09,18.10
2019,08,06,03,10,18.10
2019,08,06,03,11,18.10
2019,08,06,03,12,18.10
2019,08,06,03,13,18.10
2019,08,06,03,14,18.10
2019,08,06,03,15,18.10
2019,08,06,03,16,18.10
2019,08,06,03,17,18.10
2019,08,06,03,18,18.10
2019,08,06,03,19,18.10
2019,08,06,03,20,18.10
2019,08,06,03,21,18.10
2019,08,06,03,22,18.10
2019,08,06,03,23,18.10
2019,08,06,03,24,18.10
2019,08,06,03,25,18.10
2019,08,06,03,26,18.10
2019,08,06,03,27,18.10
2019,08,06,03,28,18.10
2019,08,06,03,29,18.10
2019,08,06,03,30,18.10
2019,08,06,03,31,18.10
2019,08,06,03,32,18.10
2019,08,06,03,33,18.10
2019,08,06,03,34,18.10
2019,08,06,03,35,18.00
2019,08,06,03,36,18.00
2019,08,06,03,37,18.00
2019,08,06,03,38,18.00
2019,08,06,03,39,18.00
2019,08,06,03,40,17.90
2019,08,06,03,41,17.90
2019,08,06,03,42,17.90
2019,08,06,03,43,17.90
2019,08,06,03,44,17.90
2019,08,06,03,45,17.90
2019,08,06,03,46,17.90
2019,08,06,03,47,17.90
2019,08,06,03,48,17.90
2019,08,06,03,49,17.90
2019,08,06,03,50,17.90
2019,08,06,03,51,17.90
2019,08,06,03,52,17.90
2019,08,06,03,53,17.90
2019,08,06,03,54,17.90
2019,08,06,03,55,17.90
2019,08,06,03,56,17.90
2019,08,06,03,57,17.90
2019,08,06,03,58,17.90
2019,08,06,03,59,17.90
2019,08,06,04,00,17.90
2019,08,06,04,01,17.90
2019,08,06,04,02,17.90
2019,08,06,04,03,17.80
2019,08,06,04,04,17.80
2019,08,06,04,05,17.80
2019,08,06,04,06,17.80
2019,08,06,04,07,17.80
2019,08,06,04,08,17.80
2019,08,06,04,09,17.80
2019,08,06,04,10,17.70
2019,08,06,04,11,17.70
2019,08,06,04,12,17.70
2019,08,06,04,13,17.70
2019,08,06,04,14,17.70
2019,08,06,04,15,17.70
2019,08,06,04,16,17.70
2019,08,06,04,17,17.70
2019,08,06,04,18,17.60
2019,08,06,04,19,17.60
2019,08,06,04,20,17.60
2019,08,06,04,21,17.60
2019,08,06,04,22,17.60
2019,08,06,04,23,17.60
2019,08,06,04,24,17.60
2019,08,06,04,25,17.60
2019,08,06,04,26,17.60
2019,08,06,04,27,17.60
2019,08,06,04,28,17.70
2019,08,06,04,29,17.70
2019,08,06,04,30,17.70
2019,08,06,04,31,17.70
2019,08,06,04,32,17.70
2019,08,06,04,33,17.70
2019,08,06,04,34,17.70
2019,08,06,04,35,17.70
2019,08,06,04,36,17.80
2019,08,06,04,37,17.80
2019,08,06,04,38,17.80
2019,08,06,04,39,17.80
2019,08,06,04,40,17.80
2019,08,06,04,41,17.70
2019,08,06,04,42,17.70
2019,08,06,04,43,17.70
2019,08,06,04,44,17.70
2019,08,06,04,45,17.70
2019,08,06,04,46,17.60
2019,08,06,04,47,17.60
2019,08,06,04,48,17.60
2019,08,06,04,49,17.60
2019,08,06,04,50,17.60
2019,08,06,04,51,17.50
2019,08,06,04,52,17.50
2019,08,06,04,53,17.50
2019,08,06,04,54,17.50
2019,08,06,04,55,17.50
2019,08,06,04,56,17.50
2019,08,06,04,57,17.40
2019,08,06,04,58,17.40
2019,08,06,04,59,17.40
2019,08,06,05,00,17.40
2019,08,06,05,01,17.40
2019,08,06,05,02,17.40
2019,08,06,05,03,17.40
2019,08,06,05,04,17.40
2019,08,06,05,05,17.30
2019,08,06,05,06,17.30
2019,08,06,05,07,17.30
2019,08,06,05,08,17.30
2019,08,06,05,09,17.30
2019,08,06,05,10,17.30
2019,08,06,05,11,17.30
2019,08,06,05,12,17.30
2019,08,06,05,13,17.30
2019,08,06,05,14,17.30
2019,08,06,05,15,17.30
2019,08,06,05,16,17.30
2019,08,06,05,17,17.30
2019,08,06,05,18,17.30
2019,08,06,05,19,17.20
2019,08,06,05,20,17.20
2019,08,06,05,21,17.20
2019,08,06,05,22,17.20
2019,08,06,05,23,17.10
2019,08,06,05,24,17.10
2019,08,06,05,25,17.10
2019,08,06,05,26,17.00
2019,08,06,05,27,17.00
2019,08,06,05,28,16.90
2019,08,06,05,29,16.90
2019,08,06,05,30,16.80
2019,08,06,05,31,16.80
2019,08,06,05,32,16.70
2019,08,06,05,33,16.70
2019,08,06,05,34,16.70
2019,08,06,05,35,16.60
2019,08,06,05,36,16.60
2019,08,06,05,37,16.60
2019,08,06,05,38,16.60
2019,08,06,05,39,16.50
2019,08,06,05,40,16.50
2019,08,06,05,41,16.50
2019,08,06,05,42,16.40
2019,08,06,05,43,16.40
2019,08,06,05,44,16.40
2019,08,06,05,45,16.40
2019,08,06,05,46,16.40
2019,08,06,05,47,16.40
2019,08,06,05,48,16.30
2019,08,06,05,49,16.30
2019,08,06,05,50,16.30
2019,08,06,05,51,16.30
2019,08,06,05,52,16.30
2019,08,06,05,53,16.30
2019,08,06,05,54,16.30
2019,08,06,05,55,16.30
2019,08,06,05,56,16.30
2019,08,06,05,57,16.30
2019,08,06,05,58,16.30
2019,08,06,05,59,16.30
2019,08,06,06,00,16.30
2019,08,06,06,01,16.30
2019,08,06,06,02,16.30
2019,08,06,06,03,16.30
2019,08,06,06,04,16.30
2019,08,06,06,05,16.30
2019,08,06,06,06,16.30
2019,08,06,06,07,16.30
2019,08,06,06,08,16.30
2019,08,06,06,09,16.30
2019,08,06,06,10,16.40
2019,08,06,06,11,16.40
2019,08,06,06,12,16.40
2019,08,06,06,13,16.40
2019,08,06,06,14,16.50
2019,08,06,06,15,16.50
2019,08,06,06,16,16.60
2019,08,06,06,17,16.60
2019,08,06,06,18,16.60
2019,08,06,06,19,16.60
2019,08,06,06,20,16.60
2019,08,06,06,21,16.70
2019,08,06,06,22,16.70
2019,08,06,06,23,16.70
2019,08,06,06,24,16.70
2019,08,06,06,25,16.70
2019,08,06,06,26,16.70
2019,08,06,06,27,16.70
2019,08,06,06,28,16.70
2019,08,06,06,29,16.70
2019,08,06,06,30,16.70
2019,08,06,06,31,16.70
2019,08,06,06,32,16.70
2019,08,06,06,33,16.70
2019,08,06,06,34,16.80
2019,08,06,06,35,16.80
2019,08,06,06,36,16.80
2019,08,06,06,37,16.80
2019,08,06,06,38,16.90
2019,08,06,06,39,16.90
2019,08,06,06,40,16.90
2019,08,06,06,41,16.90
2019,08,06,06,42,16.90
2019,08,06,06,43,17.00
2019,08,06,06,44,17.00
2019,08,06,06,45,17.00
2019,08,06,06,46,17.00
2019,08,06,06,47,17.00
2019,08,06,06,48,17.00
2019,08,06,06,49,17.00
2019,08,06,06,50,17.00
2019,08,06,06,51,17.00
2019,08,06,06,52,16.90
2019,08,06,06,53,16.90
2019,08,06,06,54,16.90
2019,08,06,06,55,16.90
2019,08,06,06,56,16.90
2019,08,06,06,57,16.90
2019,08,06,06,58,16.90
2019,08,06,06,59,16.90
2019,08,06,07,00,16.90
2019,08,06,07,01,17.00
2019,08,06,07,02,17.00
2019,08,06,07,03,17.00
2019,08,06,07,04,17.10
2019,08,06,07,05,17.10
2019,08,06,07,06,17.10
2019,08,06,07,07,17.10
2019,08,06,07,08,17.10
2019,08,06,07,09,17.20
2019,08,06,07,10,17.20
2019,08,06,07,11,17.30
2019,08,06,07,12,17.40
2019,08,06,07,13,17.50
2019,08,06,07,14,17.50
2019,08,06,07,15,17.60
2019,08,06,07,16,17.70
2019,08,06,07,17,17.80
2019,08,06,07,18,18.00
2019,08,06,07,19,18.10
2019,08,06,07,20,18.20
2019,08,06,07,21,18.40
2019,08,06,07,22,18.50
2019,08,06,07,23,18.60
2019,08,06,07,24,18.70
2019,08,06,07,25,18.80
2019,08,06,07,26,18.80
2019,08,06,07,27,18.90
2019,08,06,07,28,19.00
2019,08,06,07,29,19.00
2019,08,06,07,30,19.10
2019,08,06,07,31,19.20
2019,08,06,07,32,19.30
2019,08,06,07,33,19.40
2019,08,06,07,34,19.40
2019,08,06,07,35,19.50
2019,08,06,07,36,19.60
2019,08,06,07,37,19.60
2019,08,06,07,38,19.70
2019,08,06,07,39,19.70
2019,08,06,07,40,19.60
2019,08,06,07,41,19.60
2019,08,06,07,42,19.60
2019,08,06,07,43,19.60
2019,08,06,07,44,19.50
2019,08,06,07,45,19.50
2019,08,06,07,46,19.50
2019,08,06,07,47,19.50
2019,08,06,07,48,19.60
2019,08,06,07,49,19.60
2019,08,06,07,50,19.60
2019,08,06,07,51,19.70
2019,08,06,07,52,19.80
2019,08,06,07,53,19.90
2019,08,06,07,54,20.10
2019,08,06,07,55,20.20
2019,08,06,07,56,20.30
2019,08,06,07,57,20.50
2019,08,06,07,58,20.60
2019,08,06,07,59,20.70
2019,08,06,08,00,20.80
2019,08,06,08,01,20.90
2019,08,06,08,02,21.00
2019,08,06,08,03,21.20
2019,08,06,08,04,21.30
2019,08,06,08,05,21.40
2019,08,06,08,06,21.40
2019,08,06,08,07,21.40
2019,08,06,08,08,21.40
2019,08,06,08,09,21.40
2019,08,06,08,10,21.30
2019,08,06,08,11,21.20
2019,08,06,08,12,21.10
2019,08,06,08,13,21.10
2019,08,06,08,14,21.00
2019,08,06,08,15,20.90
2019,08,06,08,16,20.90
2019,08,06,08,17,21.00
2019,08,06,08,18,21.10
2019,08,06,08,19,21.10
2019,08,06,08,20,21.20
2019,08,06,08,21,21.20
2019,08,06,08,22,21.20
2019,08,06,08,23,21.30
2019,08,06,08,24,21.20
2019,08,06,08,25,21.20
2019,08,06,08,26,21.30
2019,08,06,08,27,21.30
2019,08,06,08,28,21.30
2019,08,06,08,29,21.30
2019,08,06,08,30,21.40
2019,08,06,08,31,21.40
2019,08,06,08,32,21.40
2019,08,06,08,33,21.40
2019,08,06,08,34,21.50
2019,08,06,08,35,21.50
2019,08,06,08,36,21.60
2019,08,06,08,37,21.60
2019,08,06,08,38,21.70
2019,08,06,08,39,21.70
2019,08,06,08,40,21.80
2019,08,06,08,41,21.80
2019,08,06,08,42,21.80
2019,08,06,08,43,21.80
2019,08,06,08,44,21.80
2019,08,06,08,45,21.70
2019,08,06,08,46,21.70
2019,08,06,08,47,21.60
2019,08,06,08,48,21.50
2019,08,06,08,49,21.40
2019,08,06,08,50,21.30
2019,08,06,08,51,21.30
2019,08,06,08,52,21.30
2019,08,06,08,53,21.20
2019,08,06,08,54,21.20
2019,08,06,08,55,21.20
2019,08,06,08,56,21.30
2019,08,06,08,57,21.30
2019,08,06,08,58,21.30
2019,08,06,08,59,21.30
2019,08,06,09,00,21.30
2019,08,06,09,01,21.30
2019,08,06,09,02,21.30
2019,08,06,09,03,21.20
2019,08,06,09,04,21.20
2019,08,06,09,05,21.20
2019,08,06,09,06,21.20
2019,08,06,09,07,21.20
2019,08,06,09,08,21.20
2019,08,06,09,09,21.20
2019,08,06,09,10,21.20
2019,08,06,09,11,21.20
2019,08,06,09,12,21.20
2019,08,06,09,13,21.20
2019,08,06,09,14,21.20
2019,08,06,09,15,21.20
2019,08,06,09,16,21.20
2019,08,06,09,17,21.20
2019,08,06,09,18,21.30
2019,08,06,09,19,21.30
2019,08,06,09,20,21.40
2019,08,06,09,21,21.40
2019,08,06,09,22,21.40
2019,08,06,09,23,21.40
2019,08,06,09,24,21.40
2019,08,06,09,25,21.40
2019,08,06,09,26,21.50
2019,08,06,09,27,21.60
2019,08,06,09,28,21.60
2019,08,06,09,29,21.70
2019,08,06,09,30,21.70
2019,08,06,09,31,21.70
2019,08,06,09,32,21.70
2019,08,06,09,33,21.80
2019,08,06,09,34,21.80
2019,08,06,09,35,21.90
2019,08,06,09,36,22.00
2019,08,06,09,37,22.00
2019,08,06,09,38,22.10
2019,08,06,09,39,22.30
2019,08,06,09,40,22.40
2019,08,06,09,41,22.50
2019,08,06,09,42,22.50
2019,08,06,09,43,22.60
2019,08,06,09,44,22.70
2019,08,06,09,45,22.70
2019,08,06,09,46,22.70
2019,08,06,09,47,22.70
2019,08,06,09,48,22.60
2019,08,06,09,49,22.60
2019,08,06,09,50,22.50
2019,08,06,09,51,22.50
2019,08,06,09,52,22.50
2019,08,06,09,53,22.40
2019,08,06,09,54,22.50
2019,08,06,09,55,22.50
2019,08,06,09,56,22.50
2019,08,06,09,57,22.50
2019,08,06,09,58,22.50
2019,08,06,09,59,22.60
2019,08,06,10,00,22.60
2019,08,06,10,01,22.60
2019,08,06,10,02,22.60
2019,08,06,10,03,22.70
2019,08,06,10,04,22.70
2019,08,06,10,05,22.80
2019,08,06,10,06,22.80
2019,08,06,10,07,22.90
2019,08,06,10,08,23.00
2019,08,06,10,09,23.00
2019,08,06,10,10,23.10
2019,08,06,10,11,23.10
2019,08,06,10,12,23.10
2019,08,06,10,13,23.10
2019,08,06,10,14,23.10
2019,08,06,10,15,23.10
2019,08,06,10,16,23.10
2019,08,06,10,17,23.00
2019,08,06,10,18,23.00
2019,08,06,10,19,22.90
2019,08,06,10,20,22.90
2019,08,06,10,21,22.90
2019,08,06,10,22,22.80
2019,08,06,10,23,22.80
2019,08,06,10,24,22.80
2019,08,06,10,25,22.80
2019,08,06,10,26,22.70
2019,08,06,10,27,22.70
2019,08,06,10,28,22.60
2019,08,06,10,29,22.60
2019,08,06,10,30,22.60
2019,08,06,10,31,22.60
2019,08,06,10,32,22.60
2019,08,06,10,33,22.60
2019,08,06,10,34,22.60
2019,08,06,10,35,22.70
2019,08,06,10,36,22.70
2019,08,06,10,37,22.70
2019,08,06,10,38,22.70
2019,08,06,10,39,22.70
2019,08,06,10,40,22.70
2019,08,06,10,41,22.70
2019,08,06,10,42,22.70
2019,08,06,10,43,22.70
2019,08,06,10,44,22.70
2019,08,06,10,45,22.80
2019,08,06,10,46,22.80
2019,08,06,10,47,22.90
2019,08,06,10,48,22.90
2019,08,06,10,49,23.00
2019,08,06,10,50,23.10
2019,08,06,10,51,23.10
2019,08,06,10,52,23.10
2019,08,06,10,53,23.10
2019,08,06,10,54,23.10
2019,08,06,10,55,23.00
2019,08,06,10,56,23.00
2019,08,06,10,57,23.00
2019,08,06,10,58,23.00
2019,08,06,10,59,23.10
2019,08,06,11,00,23.10
2019,08,06,11,01,23.10
2019,08,06,11,02,23.10
2019,08,06,11,03,23.10
2019,08,06,11,04,23.00
2019,08,06,11,05,23.10
2019,08,06,11,06,23.10
2019,08,06,11,07,23.10
2019,08,06,11,08,23.10
2019,08,06,11,09,23.10
2019,08,06,11,10,23.20
2019,08,06,11,11,23.20
2019,08,06,11,12,23.20
2019,08,06,11,13,23.30
2019,08,06,11,14,23.30
2019,08,06,11,15,23.30
2019,08,06,11,16,23.30
2019,08,06,11,17,23.40
2019,08,06,11,18,23.40
2019,08,06,11,19,23.50
2019,08,06,11,20,23.60
2019,08,06,11,21,23.60
2019,08,06,11,22,23.70
2019,08,06,11,23,23.70
2019,08,06,11,24,23.80
2019,08,06,11,25,23.80
2019,08,06,11,26,23.80
2019,08,06,11,27,23.80
2019,08,06,11,28,23.80
2019,08,06,11,29,23.80
2019,08,06,11,30,23.80
2019,08,06,11,31,23.90
2019,08,06,11,32,23.90
2019,08,06,11,33,24.00
2019,08,06,11,34,23.90
2019,08,06,11,35,23.90
2019,08,06,11,36,23.90
2019,08,06,11,37,23.80
2019,08,06,11,38,23.80
2019,08,06,11,39,23.80
2019,08,06,11,40,23.80
2019,08,06,11,41,23.80
2019,08,06,11,42,23.80
2019,08,06,11,43,23.80
2019,08,06,11,44,23.70
2019,08,06,11,45,23.70
2019,08,06,11,46,23.60
2019,08,06,11,47,23.60
2019,08,06,11,48,23.50
2019,08,06,11,49,23.50
2019,08,06,11,50,23.40
2019,08,06,11,51,23.40
2019,08,06,11,52,23.50
2019,08,06,11,53,23.40
2019,08,06,11,54,23.40
2019,08,06,11,55,23.40
2019,08,06,11,56,23.40
2019,08,06,11,57,23.40
2019,08,06,11,58,23.40
2019,08,06,11,59,23.40
2019,08,06,12,00,23.40
2019,08,06,12,01,23.40
2019,08,06,12,02,23.40
2019,08,06,12,03,23.50
2019,08,06,12,04,23.50
2019,08,06,12,05,23.50
2019,08,06,12,06,23.60
2019,08,06,12,07,23.60
2019,08,06,12,08,23.80
2019,08,06,12,09,23.80
2019,08,06,12,10,23.90
2019,08,06,12,11,24.00
2019,08,06,12,12,24.10
2019,08,06,12,13,24.10
2019,08,06,12,14,24.20
2019,08,06,12,15,24.20
2019,08,06,12,16,24.30
2019,08,06,12,17,24.40
2019,08,06,12,18,24.50
2019,08,06,12,19,24.60
2019,08,06,12,20,24.70
2019,08,06,12,21,24.80
2019,08,06,12,22,24.90
2019,08,06,12,23,25.00
2019,08,06,12,24,25.00
2019,08,06,12,25,25.10
2019,08,06,12,26,25.00
2019,08,06,12,27,25.00
2019,08,06,12,28,25.10
2019,08,06,12,29,25.10
2019,08,06,12,30,25.20
2019,08,06,12,31,25.20
2019,08,06,12,32,25.30
2019,08,06,12,33,25.40
2019,08,06,12,34,25.40
2019,08,06,12,35,25.40
2019,08,06,12,36,25.40
2019,08,06,12,37,25.30
2019,08,06,12,38,25.30
2019,08,06,12,39,25.20
2019,08,06,12,40,25.20
2019,08,06,12,41,25.20
2019,08,06,12,42,25.20
2019,08,06,12,43,25.20
2019,08,06,12,44,25.20
2019,08,06,12,45,25.20
2019,08,06,12,46,25.20
2019,08,06,12,47,25.20
2019,08,06,12,48,25.30
2019,08,06,12,49,25.30
2019,08,06,12,50,25.40
2019,08,06,12,51,25.50
2019,08,06,12,52,25.60
2019,08,06,12,53,25.70
2019,08,06,12,54,25.80
2019,08,06,12,55,25.90
2019,08,06,12,56,26.00
2019,08,06,12,57,26.10
2019,08,06,12,58,26.10
2019,08,06,12,59,26.10
2019,08,06,13,00,26.10
2019,08,06,13,01,26.10
2019,08,06,13,02,26.20
2019,08,06,13,03,26.20
2019,08,06,13,04,26.20
2019,08,06,13,05,26.20
2019,08,06,13,06,26.30
2019,08,06,13,07,26.20
2019,08,06,13,08,26.20
2019,08,06,13,09,26.20
2019,08,06,13,10,26.20
2019,08,06,13,11,26.20
2019,08,06,13,12,26.30
2019,08,06,13,13,26.40
2019,08,06,13,14,26.40
2019,08,06,13,15,26.50
2019,08,06,13,16,26.60
2019,08,06,13,17,26.70
2019,08,06,13,18,26.60
2019,08,06,13,19,26.60
2019,08,06,13,20,26.70
2019,08,06,13,21,26.70
2019,08,06,13,22,26.70
2019,08,06,13,23,26.70
2019,08,06,13,24,26.60
2019,08,06,13,25,26.60
2019,08,06,13,26,26.60
2019,08,06,13,27,26.50
2019,08,06,13,28,26.50
2019,08,06,13,29,26.50
2019,08,06,13,30,26.50
2019,08,06,13,31,26.60
2019,08,06,13,32,26.60
2019,08,06,13,33,26.70
2019,08,06,13,34,26.70
2019,08,06,13,35,26.70
2019,08,06,13,36,26.80
2019,08,06,13,37,26.80
2019,08,06,13,38,26.90
2019,08,06,13,39,27.00
2019,08,06,13,40,27.00
2019,08,06,13,41,26.90
2019,08,06,13,42,26.80
2019,08,06,13,43,26.70
2019,08,06,13,44,26.60
2019,08,06,13,45,26.50
2019,08,06,13,46,26.40
2019,08,06,13,47,26.40
2019,08,06,13,48,26.30
2019,08,06,13,49,26.30
2019,08,06,13,50,26.20
2019,08,06,13,51,26.20
2019,08,06,13,52,26.10
2019,08,06,13,53,26.00
2019,08,06,13,54,26.00
2019,08,06,13,55,25.90
2019,08,06,13,56,25.90
2019,08,06,13,57,26.00
2019,08,06,13,58,26.00
2019,08,06,13,59,26.10
2019,08,06,14,00,26.10
2019,08,06,14,01,26.20
2019,08,06,14,02,26.20
2019,08,06,14,03,26.30
2019,08,06,14,04,26.30
2019,08,06,14,05,26.30
2019,08,06,14,06,26.20
2019,08,06,14,07,26.20
2019,08,06,14,08,26.20
2019,08,06,14,09,26.20
2019,08,06,14,10,26.20
2019,08,06,14,11,26.20
2019,08,06,14,12,26.20
2019,08,06,14,13,26.20
2019,08,06,14,14,26.20
2019,08,06,14,15,26.20
2019,08,06,14,16,26.30
2019,08,06,14,17,26.30
2019,08,06,14,18,26.30
2019,08,06,14,19,26.30
2019,08,06,14,20,26.30
2019,08,06,14,21,26.30
2019,08,06,14,22,26.30
2019,08,06,14,23,26.20
2019,08,06,14,24,26.20
2019,08,06,14,25,26.20
2019,08,06,14,26,26.30
2019,08,06,14,27,26.30
2019,08,06,14,28,26.30
2019,08,06,14,29,26.30
2019,08,06,14,30,26.30
2019,08,06,14,31,26.40
2019,08,06,14,32,26.50
2019,08,06,14,33,26.50
2019,08,06,14,34,26.60
2019,08,06,14,35,26.60
2019,08,06,14,36,26.60
2019,08,06,14,37,26.60
2019,08,06,14,38,26.70
2019,08,06,14,39,26.80
2019,08,06,14,40,26.80
2019,08,06,14,41,26.70
2019,08,06,14,42,26.70
2019,08,06,14,43,26.70
2019,08,06,14,44,26.80
2019,08,06,14,45,26.80
2019,08,06,14,46,26.80
2019,08,06,14,47,26.80
2019,08,06,14,48,26.90
2019,08,06,14,49,26.90
2019,08,06,14,50,26.90
2019,08,06,14,51,26.80
2019,08,06,14,52,26.80
2019,08,06,14,53,26.80
2019,08,06,14,54,26.70
2019,08,06,14,55,26.70
2019,08,06,14,56,26.70
2019,08,06,14,57,26.70
2019,08,06,14,58,26.70
2019,08,06,14,59,26.70
2019,08,06,15,00,26.70
2019,08,06,15,01,26.80
2019,08,06,15,02,26.80
2019,08,06,15,03,26.80
2019,08,06,15,04,26.80
2019,08,06,15,05,26.90
2019,08,06,15,06,26.90
2019,08,06,15,07,27.00
2019,08,06,15,08,27.10
2019,08,06,15,09,27.20
2019,08,06,15,10,27.20
2019,08,06,15,11,27.20
2019,08,06,15,12,27.20
2019,08,06,15,13,27.20
2019,08,06,15,14,27.20
2019,08,06,15,15,27.30
2019,08,06,15,16,27.30
2019,08,06,15,17,27.40
2019,08,06,15,18,27.40
2019,08,06,15,19,27.40
2019,08,06,15,20,27.40
2019,08,06,15,21,27.40
2019,08,06,15,22,27.40
2019,08,06,15,23,27.40
2019,08,06,15,24,27.30
2019,08,06,15,25,27.40
2019,08,06,15,26,27.40
2019,08,06,15,27,27.40
2019,08,06,15,28,27.40
2019,08,06,15,29,27.40
2019,08,06,15,30,27.40
2019,08,06,15,31,27.40
2019,08,06,15,32,27.40
2019,08,06,15,33,27.40
2019,08,06,15,34,27.40
2019,08,06,15,35,27.40
2019,08,06,15,36,27.40
2019,08,06,15,37,27.40
2019,08,06,15,38,27.40
2019,08,06,15,39,27.40
2019,08,06,15,40,27.50
2019,08,06,15,41,27.60
2019,08,06,15,42,27.60
2019,08,06,15,43,27.60
2019,08,06,15,44,27.60
2019,08,06,15,45,27.60
2019,08,06,15,46,27.50
2019,08,06,15,47,27.50
2019,08,06,15,48,27.40
2019,08,06,15,49,27.40
2019,08,06,15,50,27.50
2019,08,06,15,51,27.50
2019,08,06,15,52,27.60
2019,08,06,15,53,27.60
2019,08,06,15,54,27.60
2019,08,06,15,55,27.50
2019,08,06,15,56,27.50
2019,08,06,15,57,27.50
2019,08,06,15,58,27.50
2019,08,06,15,59,27.50
2019,08,06,16,00,27.40
2019,08,06,16,01,27.40
2019,08,06,16,02,27.40
2019,08,06,16,03,27.40
2019,08,06,16,04,27.40
2019,08,06,16,05,27.40
2019,08,06,16,06,27.40
2019,08,06,16,07,27.40
2019,08,06,16,08,27.40
2019,08,06,16,09,27.40
2019,08,06,16,10,27.30
2019,08,06,16,11,27.30
2019,08,06,16,12,27.40
2019,08,06,16,13,27.40
2019,08,06,16,14,27.40
2019,08,06,16,15,27.50
2019,08,06,16,16,27.50
2019,08,06,16,17,27.60
2019,08,06,16,18,27.60
2019,08,06,16,19,27.60
2019,08,06,16,20,27.60
2019,08,06,16,21,27.70
2019,08,06,16,22,27.70
2019,08,06,16,23,27.70
2019,08,06,16,24,27.70
2019,08,06,16,25,27.70
2019,08,06,16,26,27.70
2019,08,06,16,27,27.70
2019,08,06,16,28,27.70
2019,08,06,16,29,27.70
2019,08,06,16,30,27.80
2019,08,06,16,31,27.80
2019,08,06,16,32,27.80
2019,08,06,16,33,27.80
2019,08,06,16,34,27.80
2019,08,06,16,35,27.80
2019,08,06,16,36,27.80
2019,08,06,16,37,27.80
2019,08,06,16,38,27.80
2019,08,06,16,39,27.80
2019,08,06,16,40,27.80
2019,08,06,16,41,27.80
2019,08,06,16,42,27.80
2019,08,06,16,43,27.80
2019,08,06,16,44,27.80
2019,08,06,16,45,27.80
2019,08,06,16,46,27.80
2019,08,06,16,47,27.80
2019,08,06,16,48,27.80
2019,08,06,16,49,27.80
2019,08,06,16,50,27.80
2019,08,06,16,51,27.80
2019,08,06,16,52,27.80
2019,08,06,16,53,27.90
2019,08,06,16,54,27.90
2019,08,06,16,55,27.90
2019,08,06,16,56,27.90
2019,08,06,16,57,27.90
2019,08,06,16,58,27.90
2019,08,06,16,59,27.90
2019,08,06,17,00,27.90
2019,08,06,17,01,27.90
2019,08,06,17,02,28.00
2019,08,06,17,03,28.00
2019,08,06,17,04,28.00
2019,08,06,17,05,28.00
2019,08,06,17,06,28.00
2019,08,06,17,07,28.00
2019,08,06,17,08,28.00
2019,08,06,17,09,28.10
2019,08,06,17,10,28.10
2019,08,06,17,11,28.10
2019,08,06,17,12,28.10
2019,08,06,17,13,28.10
2019,08,06,17,14,28.10
2019,08,06,17,15,28.10
2019,08,06,17,16,28.10
2019,08,06,17,17,28.10
2019,08,06,17,18,28.10
2019,08,06,17,19,28.20